User: anonymous   Login
Location: Waldport
(44.4270°N, 124.0680°W)
Time: 23:34:25
(UTC-07:00)
Language:

Cosmos 1570 Rocket - Orbit

View from above orbital plane
View from above orbital plane
View from above satellite
View from above satellite

Ground track
Ground track

The orbit data is extracted from the following two-line orbital elements,

1 15032U 84056B   15110.51554662  .00000309  00000-0  11837-3 0  9991
2 15032 074.0708 077.7712 0016183 078.7978 060.4232 14.34552944613823
Epoch (UTC): 20 April 2015 12:22:23
Eccentricity: 0.0016183
inclination: 74.0708°
perigee height: 765 km
apogee height: 788 km
right ascension of ascending node: 77.7712°
argument of perigee: 78.7978°
revolutions per day: 14.34552944
mean anomaly at epoch: 60.4232°
orbit number at epoch: 61382

The dashed part of the orbit path shows where the satellite is in the earth's shadow,  

DLR